| time (UTC) | temp F | wind direction | speed knots | gust knots | rain 1hr in | rain 24hr in | rain mn in | humidity % | barometer mb |
| 20260503025640 | 49 | 45 | 1.7 | 3.5 | 0.00 | 0.00 | 0.00 | 84 | 1017.4 |
| 20260503024254 | 49 | 45 | 1.7 | 3.5 | 0.00 | 0.00 | 0.00 | 84 | 1017.4 |
| 20260503022945 | 49 | 0 | 2.6 | 3.5 | 0.00 | 0.00 | 0.00 | 85 | 1017.4 |
| 20260503021458 | 49 | 0 | 2.6 | 3.5 | 0.00 | 0.00 | 0.00 | 85 | 1017.4 |
| 20260503020104 | 50 | 45 | 1.7 | 4.3 | 0.00 | 0.00 | 0.00 | 83 | 1017.2 |
| 20260503014735 | 50 | 45 | 1.7 | 4.3 | 0.00 | 0.00 | 0.00 | 83 | 1017.2 |
| 20260503013327 | 50 | 90 | 0.9 | 4.3 | 0.00 | 0.00 | 0.00 | 80 | 1017.4 |
| 20260503011924 | 50 | 90 | 0.9 | 4.3 | 0.00 | 0.00 | 0.00 | 80 | 1017.4 |
| 20260503010530 | 51 | 0 | 1.7 | 3.5 | 0.00 | 0.00 | 0.00 | 80 | 1017.4 |
| 20260503005212 | 51 | 0 | 1.7 | 3.5 | 0.00 | 0.00 | 0.00 | 80 | 1017.4 |
| 20260503003825 | 51 | 0 | 1.7 | 3.5 | 0.00 | 0.00 | 0.00 | 80 | 1017.4 |
| 20260503002515 | 52 | 270 | 1.7 | 3.5 | 0.00 | 0.00 | 0.00 | 74 | 1017.3 |
| 20260503001221 | 52 | 270 | 1.7 | 3.5 | 0.00 | 0.00 | 0.00 | 74 | 1017.3 |
| 20260502235800 | 51 | 0 | 1.7 | 3.5 | 0.00 | 0.00 | 0.00 | 74 | 1017.4 |
| 20260502234425 | 51 | 0 | 1.7 | 3.5 | 0.00 | 0.00 | 0.00 | 74 | 1017.4 |
| 20260502233145 | 53 | 0 | 1.7 | 3.5 | 0.00 | 0.00 | 0.00 | 70 | 1017.3 |
| 20260502231807 | 53 | 0 | 1.7 | 3.5 | 0.00 | 0.00 | 0.00 | 70 | 1017.3 |
| 20260502230445 | 53 | 315 | 2.6 | 3.5 | 0.00 | 0.00 | 0.00 | 65 | 1017.2 |
| 20260502225030 | 53 | 315 | 2.6 | 3.5 | 0.00 | 0.00 | 0.00 | 65 | 1017.2 |
| 20260502223750 | 53 | 315 | 2.6 | 3.5 | 0.00 | 0.00 | 0.00 | 65 | 1017.2 |
| 20260502222458 | 53 | 315 | 1.7 | 3.5 | 0.00 | 0.00 | 0.00 | 68 | 1017.2 |
| 20260502221115 | 53 | 315 | 1.7 | 3.5 | 0.00 | 0.00 | 0.00 | 68 | 1017.2 |
| 20260502215640 | 54 | 0 | 1.7 | 3.5 | 0.00 | 0.00 | 0.00 | 66 | 1017.1 |
| 20260502214220 | 54 | 0 | 1.7 | 3.5 | 0.00 | 0.00 | 0.00 | 66 | 1017.1 |
| 20260502212755 | 54 | 0 | 2.6 | 3.5 | 0.00 | 0.00 | 0.00 | 68 | 1017.3 |
| 20260502211430 | 54 | 0 | 2.6 | 3.5 | 0.00 | 0.00 | 0.00 | 68 | 1017.3 |
| 20260502210125 | 57 | 45 | 2.6 | 4.3 | 0.00 | 0.00 | 0.00 | 63 | 1017.1 |
| 20260502204740 | 57 | 45 | 2.6 | 4.3 | 0.00 | 0.00 | 0.00 | 63 | 1017.1 |
| 20260502203514 | 58 | 0 | 1.7 | 2.6 | 0.00 | 0.00 | 0.00 | 59 | 1016.8 |
| 20260502202245 | 58 | 0 | 1.7 | 2.6 | 0.00 | 0.00 | 0.00 | 59 | 1016.8 |
| 20260502200845 | 58 | 0 | 1.7 | 2.6 | 0.00 | 0.00 | 0.00 | 59 | 1016.8 |
| 20260502195515 | 65 | 90 | 2.6 | 3.5 | 0.00 | 0.00 | 0.00 | 54 | 1015.9 |
| 20260502194215 | 65 | 90 | 2.6 | 3.5 | 0.00 | 0.00 | 0.00 | 54 | 1015.9 |
| 20260502192758 | 65 | 90 | 2.6 | 3.5 | 0.00 | 0.00 | 0.00 | 54 | 1015.9 |
| 20260502191450 | 65 | 90 | 2.6 | 3.5 | 0.00 | 0.00 | 0.00 | 54 | 1015.9 |
| 20260502190225 | 72 | 135 | 3.5 | 5.2 | 0.00 | 0.00 | 0.00 | 30 | 1015.1 |
| 20260502184950 | 72 | 135 | 3.5 | 5.2 | 0.00 | 0.00 | 0.00 | 30 | 1015.1 |
| 20260502183625 | 72 | 135 | 3.5 | 5.2 | 0.00 | 0.00 | 0.00 | 30 | 1015.1 |
| 20260502182215 | 75 | 135 | 1.7 | 3.5 | 0.00 | 0.00 | 0.00 | 29 | 1014.9 |
| 20260502180915 | 75 | 135 | 1.7 | 3.5 | 0.00 | 0.00 | 0.00 | 29 | 1014.9 |
| 20260502170130 | 76 | 90 | 1.7 | 4.3 | 0.00 | 0.00 | 0.00 | 27 | 1016.0 |
| 20260502163318 | 76 | 90 | 1.7 | 4.3 | 0.00 | 0.00 | 0.00 | 27 | 1016.0 |
| 20260502161853 | 76 | 90 | 1.7 | 4.3 | 0.00 | 0.00 | 0.00 | 27 | 1016.0 |
| 20260502160623 | 76 | 90 | 1.7 | 4.3 | 0.00 | 0.00 | 0.00 | 27 | 1016.0 |
| 20260502151355 | 77 | 0 | 1.7 | 5.2 | 0.00 | 0.00 | 0.00 | 20 | 1016.9 |
| 20260502150109 | 73 | 90 | 1.7 | 6.1 | 0.00 | 0.00 | 0.00 | 31 | 1019.1 |
| 20260502123230 | 71 | 225 | 2.6 | 5.2 | 0.00 | 0.00 | 0.00 | 40 | 1020.0 |
| 20260502122005 | 71 | 225 | 2.6 | 5.2 | 0.00 | 0.00 | 0.00 | 40 | 1020.0 |
| 20260502120630 | 71 | 225 | 2.6 | 5.2 | 0.00 | 0.00 | 0.00 | 40 | 1020.0 |
| 20260502115335 | 71 | 315 | 2.6 | 7.0 | 0.00 | 0.00 | 0.00 | 43 | 1020.5 |
| 20260502114108 | 71 | 315 | 2.6 | 7.0 | 0.00 | 0.00 | 0.00 | 43 | 1020.5 |
| 20260502112710 | 68 | 270 | 3.5 | 7.0 | 0.00 | 0.00 | 0.00 | 42 | 1021.2 |
| 20260502111350 | 68 | 270 | 3.5 | 7.0 | 0.00 | 0.00 | 0.00 | 42 | 1021.2 |
| 20260502105908 | 68 | 225 | 2.6 | 6.1 | 0.00 | 0.00 | 0.00 | 44 | 1021.4 |
| 20260502104600 | 68 | 225 | 2.6 | 6.1 | 0.00 | 0.00 | 0.00 | 44 | 1021.4 |
| 20260502103235 | 67 | 270 | 1.7 | 4.3 | 0.00 | 0.00 | 0.00 | 48 | 1021.9 |
| 20260502101817 | 67 | 270 | 1.7 | 4.3 | 0.00 | 0.00 | 0.00 | 48 | 1021.9 |
| 20260502100600 | 63 | 225 | 1.7 | 4.3 | 0.00 | 0.00 | 0.00 | 49 | 1022.6 |
| 20260502091245 | 62 | 135 | 1.7 | 3.5 | 0.00 | 0.00 | 0.00 | 47 | 1022.8 |
| 20260502071035 | 54 | 180 | 0.9 | 2.6 | 0.00 | 0.00 | 0.00 | 60 | 1024.1 |
| 20260502065825 | 53 | 225 | 0.9 | 3.5 | 0.00 | 0.00 | 0.00 | 66 | 1024.0 |
| 20260502064508 | 53 | 225 | 0.9 | 3.5 | 0.00 | 0.00 | 0.00 | 66 | 1024.0 |
| 20260502063125 | 47 | 45 | 1.7 | 3.5 | 0.00 | 0.00 | 0.00 | 79 | 1024.6 |
| 20260502061729 | 47 | 45 | 1.7 | 3.5 | 0.00 | 0.00 | 0.00 | 79 | 1024.6 |
| 20260502060425 | 43 | 0 | 1.7 | 3.5 | 0.00 | 0.00 | 0.00 | 85 | 1024.9 |
| 20260502055045 | 43 | 0 | 1.7 | 3.5 | 0.00 | 0.00 | 0.00 | 85 | 1024.9 |
| 20260502053650 | 43 | 0 | 1.7 | 3.5 | 0.00 | 0.00 | 0.00 | 85 | 1024.9 |
| 20260502052245 | 41 | 0 | 1.7 | 3.5 | 0.00 | 0.00 | 0.00 | 88 | 1025.0 |
| 20260502050915 | 41 | 0 | 1.7 | 3.5 | 0.00 | 0.00 | 0.00 | 88 | 1025.0 |
| 20260502045600 | 43 | 0 | 1.7 | 1.7 | 0.00 | 0.00 | 0.00 | 84 | 1024.5 |
| 20260502044200 | 43 | 0 | 1.7 | 1.7 | 0.00 | 0.00 | 0.00 | 84 | 1024.5 |
| 20260502042940 | 43 | 0 | 1.7 | 1.7 | 0.00 | 0.00 | 0.00 | 84 | 1024.5 |
| 20260502041535 | 43 | 0 | 1.7 | 1.7 | 0.00 | 0.00 | 0.00 | 84 | 1024.5 |
| 20260502040230 | 42 | 0 | 0.0 | 3.5 | 0.00 | 0.00 | 0.00 | 85 | 1024.9 |
| 20260502034855 | 42 | 0 | 0.0 | 3.5 | 0.00 | 0.00 | 0.00 | 85 | 1024.9 |
| 20260502033435 | 45 | 0 | 1.7 | 3.5 | 0.00 | 0.00 | 0.00 | 80 | 1024.4 |
| 20260502032110 | 45 | 0 | 1.7 | 3.5 | 0.00 | 0.00 | 0.00 | 80 | 1024.4 |
| 20260502030740 | 45 | 0 | 1.7 | 3.5 | 0.00 | 0.00 | 0.00 | 80 | 1024.4 |